Location: Newark
(42.7133°N, 87.7910°W)
Time: 06:26:55
(UTC+00:00)

Vanguard 1 - Pass Details

Date: 28 September 2019
Orbit: 653 x 3830 km, 34.2° (Epoch: 17 October)

Event Time Altitude Azimuth Distance (km) Brightness Sun altitude
Rises 11:50:45 0° 282° (WNW) 7,956 14.0 0.3°
Reaches altitude 10° 11:56:58 10° 277° (W) 6,786 13.7 1.4°
Maximum altitude 12:15:17 38° 219° (SW) 3,825 12.9 4.7°
Drops below altitude 10° 12:27:11 10° 156° (SSE) 4,457 14.0 6.9°
Sets 12:30:19 0° 148° (SSE) 5,080 14.4 7.5°
